Regional Weather Roundup
Issued by NWS

Home | Current Version | Previous Version | Graphics & Text | Print | Product List | Glossary On
Versions: 1 2 3 4 5 6 7 8 9 10 11 12 13 14 15 16 17 18 19 20 21 22 23 24 25 26 27 28 29 30 31 32 33 34 35 36 37 38 39 40 41 42 43 44 45 46 47 48 49 50
000
ASUS43 KLOT 280608
RWRIL

ILLINOIS REGIONAL WEATHER ROUNDUP
NATIONAL WEATHER SERVICE CHICAGO/ROMEOVILLE IL
100 AM CDT SAT MAY 28 2016

NOTE: "FAIR" INDICATES FEW OR NO CLOUDS BELOW 12,000 FEET WITH NO
SIGNIFICANT WEATHER AND/OR OBSTRUCTIONS TO VISIBILITY.

* THESE STATIONS ARE NOT UNDER NWS QUALITY CONTROL. THEY ALSO MAY NOT
  REPORT WEATHER SUCH AS PRECIPITATION OR FOG.

ILZ001-002-007-009-015-016-024-280700-
NORTHWEST ILLINOIS

CITY           SKY/WX    TMP DP  RH WIND       PRES   REMARKS
MOLINE         PTCLDY    71  66  84 S14G23    29.75F
6HR MIN TEMP:  71; 6HR MAX TEMP:  79; 6HR PCP:  0.10;

STERLING*      CLOUDY    69  68  96 SE9       29.80F
SAVANNA*       LGT RAIN  70  68  93 S14G22    29.76F
$$

ILZ003-004-008-010-011-017-018-280700-
NORTH CENTRAL ILLINOIS

CITY           SKY/WX    TMP DP  RH WIND       PRES   REMARKS
ROCKFORD       CLOUDY    69  66  90 S12       29.84F
6HR MIN TEMP:  69; 6HR MAX TEMP:  78; 6HR PCP:  0.02;

FREEPORT*      LGT RAIN  68  66  94 SE15G22   29.81F
ROCHELLE*      CLOUDY    69  66  92 S13       29.84F
DE KALB*       CLOUDY    68  66  93 S13       29.85F
$$

ILZ005-006-012>014-019>023-280700-
NORTHEAST ILLINOIS

CITY           SKY/WX    TMP DP  RH WIND       PRES   REMARKS
CHICAGO-OHARE  CLOUDY    69  65  86 S10       29.86F
6HR MIN TEMP:  68; 6HR MAX TEMP:  78; 6HR PCP:  0.02;

CHICAGO-MIDWAY CLOUDY    71  64  78 S9        29.86F
6HR MIN TEMP:  71; 6HR MAX TEMP:  79; 6HR PCP:  0.08;

AURORA         CLOUDY    70  65  84 S12       29.85F
6HR MIN TEMP:  70; 6HR MAX TEMP:  76; 6HR PCP: TRACE;

LANSING*       CLOUDY    69  64  82 S9        29.89S
JOLIET*        MOCLDY    71  66  84 S6        29.86F
WAUKEGAN       PTCLDY    68  66  93 S12       29.85F
6HR MIN TEMP:  65; 6HR MAX TEMP:  71; 6HR PCP:  0.03;

DUPAGE AIRPORT CLOUDY    69  63  81 S12       29.85F
6HR MIN TEMP:  68; 6HR MAX TEMP:  74; 6HR PCP:  0.01;

KANKAKEE*      CLOUDY    68  64  88 SE8       29.89F
WHEELING       CLOUDY    69  65  86 S12       29.87F
6HR MIN TEMP:  69; 6HR MAX TEMP:  77; 6HR PCP:  0.03;

MORRIS*        CLOUDY    69  65  86 S8        29.85F
ROMEOVILLE*    CLOUDY    69  63  83 S9        29.86F
NORTHERLY ISL    N/A     71  63  75 S9          N/A
NORTHERLY ISL    N/A     71  63  75 S9          N/A
$$

LMZ740>746-280700-
SOUTHERN LAKE MICHIGAN

STATION/POSITION SKY/WX   TEMP    WIND        PRES    VSBY  WAVE
                          AIR SEA DIR/SP/G                  HT/PER
                          (F)     (DEG/KT/KT) (MB)    (MI)  (FT/S)
SOUTHERN BUOY              56 50  160/ 12/ 14 1011.4F         1/ 3
WILMETTE HARBOR            60 53  180/  6/  8   N/A           1/ 3
HARRISON CRIB              69     190/ 16/ 16   N/A
BURNHAM HARBOR             70     200/  6/ 13   N/A
CALUMET HARBOR             71     180/  9/ 14 1011.4F
BURNS HARBOR               70     180/  9/ 22 1012.9F
MICHIGAN CITY              71     160/ 11/ 13   N/A
MICHIGAN CITY 6N           64 58  170/  6/  8   N/A           1/ 2
ST. JOSEPH                 66 61  150/  6/  8   N/A           1
$$

ILZ025>027-034>036-040-047-049-050-058-095>099-280700-
WEST-CENTRAL ILLINOIS

CITY           SKY/WX    TMP DP  RH WIND       PRES   REMARKS
QUINCY         CLOUDY    68  66  93 S10       29.78S
GALESBURG*     CLOUDY    69  66  92 S8        29.77F
MACOMB*        CLOUDY    69  66  93 S15G21    29.80F
JACKSONVILLE*  CLOUDY    70  67  90 S12       29.82S
PITTSFIELD*    CLOUDY    69  68  96 S7        29.82S
$$

ILZ028>032-037-038-041>044-048-051>054-059>061-280700-
CENTRAL ILLINOIS

CITY           SKY/WX    TMP DP  RH WIND       PRES   REMARKS
PONTIAC        CLOUDY    71  67  89 S12       29.87S
BLOOMINGTON    CLOUDY    70  68  93 S15       29.86F
DECATUR        CLOUDY    70  65  84 SE10      29.85F
PEORIA         CLOUDY    69  66  90 S9        29.81F
6HR MIN TEMP:  69; 6HR MAX TEMP:  77; 6HR PCP:  0.07;

LACON*         CLOUDY    69  65  88 S9        29.81F
LINCOLN*       CLOUDY    70  67  90 S9        29.84F
SPRINGFIELD    CLOUDY    72  67  84 S10       29.83S
6HR MIN TEMP:  71; 6HR MAX TEMP:  76; 6HR PCP: TRACE;

TAYLORVILLE    RAIN      68  66  93 S14G21    29.85S
6HR MIN TEMP:  68; 6HR MAX TEMP:  70; 6HR PCP:  0.01;

$$

ILZ033-039-045-046-055>057-062-063-280700-
EAST-CENTRAL ILLINOIS

CITY           SKY/WX    TMP DP  RH WIND       PRES   REMARKS
CHAMPAIGN      CLOUDY    69  66  90 SE10      29.89F
RANTOUL*       CLOUDY    69  67  93 SE9       29.89F
MATTOON        CLOUDY    69  64  84 SE9       29.88F
PARIS*         CLOUDY    68  66  93 SE6       29.92S
$$

ILZ079-100>102-280700-
SOUTHWEST ILLINOIS

CITY           SKY/WX    TMP DP  RH WIND       PRES   REMARKS
ALTON          CLOUDY    70  66  87 S13G18    29.84S
BELLEVILLE     CLOUDY    71  71  99 E9        29.84S
CAHOKIA*       CLOUDY    72  66  81 S7        29.84S
SPARTA*        CLOUDY    70  66  87 S9        29.88S
$$

ILZ064>066-069>071-074>076-080>082-084>086-088>090-092>094-280700-
SOUTH-CENTRAL ILLINOIS

CITY           SKY/WX    TMP DP  RH WIND       PRES   REMARKS
CARBONDALE     CLOUDY    70  66  87 S12       29.89S
6HR MIN TEMP:  69; 6HR MAX TEMP:  71;

CAIRO*         CLOUDY    71  67  88 S12       29.91S
EFFINGHAM*     CLOUDY    69  67  93 SE9       29.91S
MARION         PTCLDY    70  68  94 CALM      29.92R
MT. VERNON     CLOUDY    72  63  73 S10       29.90S
CENTRALIA*     CLOUDY    72  68  87 S10G16    29.88R
SALEM*         CLOUDY    71  66  84 SE6       29.89R
METROPOLIS*    CLOUDY    74  67  78 SE5       29.93R
$$

ILZ067-068-072-073-078-083-087-091-280700-
SOUTHEAST ILLINOIS

CITY           SKY/WX    TMP DP  RH WIND       PRES   REMARKS
LAWRENCEVILLE  CLOUDY    75  65  70 S10       29.93R
FLORA*         CLOUDY    70  66  86 S9        29.90S
FAIRFIELD*     PTCLDY    72  65  80 SE6       29.90S
HARRISBURG*    PTCLDY    71  67  85 SE7       29.92S
ROBINSON*      CLOUDY    69  64  82 S7        29.93S
CARMI*         CLEAR     70  66  87 SE9       29.92S
$$

ABBREVIATIONS USED IN REMARKS
   TC - TEMPERATURE IN CELSIUS
  WCI - WIND CHILL INDEX
   HX - HEAT INDEX
  VSB - VISIBILITY
$$





USA.gov is the U.S. government's official web portal to all federal, state and local government web resources and services.